Weather History for Anderson, SC

Change the Weather History Date:

Sunday, March 3, 2013

  Actual Average Record
Temperature  
Mean Temperature 35 °F -  
Max Temperature 46 °F 62 °F 82 °F (1976)
Min Temperature 24 °F 40 °F 5 °F (1980)
Degree Days  
Heating Degree Days 30    
Moisture  
Dew Point 19 °F    
Average Humidity 55    
Maximum Humidity 88    
Minimum Humidity 28    
Precipitation  
Precipitation 0.00 in - - ()
Sea Level Pressure  
Sea Level Pressure 29.97 in    
Wind  
Wind Speed 3 mph (West)    
Max Wind Speed 13 mph    
Max Gust Speed 17 mph    
Visibility 10 miles    
Events      
Averages and records for this station are not official NWS values.
T = Trace of Precipitation, MM = Missing Value Source: NWS Daily Summary

Daily Weather History Graph

Daily Weather History Graph

Search for Another Location

Airport:

Trip Planner

Search our weather history database for the weather conditions in past years. The results will help you decide how hot, cold, wet, or windy it might be!

Date:

Astronomy

Mar. 03, 2013 Rise Set
Actual Time 6:57 AM EST 6:28 PM EST
Civil Twilight 6:31 AM EST 6:54 PM EST
Nautical Twilight 6:02 AM EST 7:23 PM EST
Astronomical Twilight 5:33 AM EST 7:52 PM EST
Moon No Moon Rise 10:27 AM EST (3/3)
Length of Visible Light 12h 22m
Length of Day
11h 31m
Waning Gibbous, 64% of the Moon is Illuminated
Mar 3
Waning Gibbous
Mar 4
Last Quarter
Mar 11
New
Mar 19
First Quarter
Mar 27
Full

Hourly Weather History & Observations

Time (EST) Temp. Windchill Dew Point Humidity Pressure Visibility Wind Dir Wind Speed Gust Speed Precip Events Conditions
12:56 AM 33.1 °F 30.0 °F 21.0 °F 61% 29.95 in 10.0 mi WNW 3.5 mph - N/A   Clear
1:56 AM 30.0 °F - 21.9 °F 72% 29.96 in 10.0 mi Calm Calm - N/A   Clear
2:56 AM 27.0 °F - 21.0 °F 78% 29.96 in 10.0 mi Calm Calm - N/A   Clear
3:56 AM 28.0 °F - 21.9 °F 78% 29.94 in 10.0 mi Calm Calm - N/A   Clear
4:56 AM 26.1 °F - 21.9 °F 84% 29.96 in 10.0 mi Calm Calm - N/A   Clear
5:56 AM 25.0 °F - 21.0 °F 85% 29.97 in 10.0 mi Calm Calm - N/A   Clear
6:56 AM 24.1 °F - 21.0 °F 88% 29.97 in 10.0 mi Calm Calm - N/A   Clear
7:56 AM 27.0 °F - 23.0 °F 85% 29.99 in 10.0 mi Calm Calm - N/A   Clear
8:56 AM 34.0 °F 31.0 °F 21.9 °F 61% 30.00 in 10.0 mi NNE 3.5 mph - N/A   Clear
9:56 AM 36.0 °F 33.3 °F 18.0 °F 48% 30.00 in 10.0 mi Variable 3.5 mph - N/A   Clear
10:56 AM 37.9 °F - 19.0 °F 47% 29.99 in 10.0 mi Calm Calm - N/A   Clear
11:56 AM 39.9 °F 34.5 °F 18.0 °F 41% 29.99 in 10.0 mi West 8.1 mph - N/A   Partly Cloudy
12:56 PM 41.0 °F 36.4 °F 18.0 °F 40% 29.96 in 10.0 mi West 6.9 mph - N/A   Clear
1:56 PM 43.0 °F - 17.1 °F 35% 29.94 in 10.0 mi Calm Calm - N/A   Clear
2:56 PM 45.0 °F 41.8 °F 16.0 °F 31% 29.93 in 10.0 mi WSW 5.8 mph 17.3 mph N/A   Clear
3:56 PM 46.9 °F - 15.1 °F 28% 29.92 in 10.0 mi WSW 8.1 mph 17.3 mph N/A   Clear
4:56 PM 46.9 °F - 16.0 °F 29% 29.92 in 10.0 mi WSW 11.5 mph - N/A   Clear
5:56 PM 44.1 °F 37.7 °F 19.0 °F 37% 29.94 in 10.0 mi West 12.7 mph - N/A   Clear
6:56 PM 39.9 °F 33.9 °F 19.9 °F 45% 29.96 in 10.0 mi West 9.2 mph - N/A   Clear
7:56 PM 37.9 °F 30.9 °F 18.0 °F 45% 29.99 in 10.0 mi West 10.4 mph - N/A   Clear
8:56 PM 35.1 °F 30.1 °F 18.0 °F 50% 30.01 in 10.0 mi WNW 5.8 mph - N/A   Clear
9:56 PM 33.1 °F 27.7 °F 17.1 °F 52% 30.03 in 10.0 mi West 5.8 mph - N/A   Clear
10:56 PM 32.0 °F 25.6 °F 17.1 °F 54% 30.04 in 10.0 mi WNW 6.9 mph - N/A   Clear
11:56 PM 30.9 °F 27.5 °F 17.1 °F 57% 30.04 in 10.0 mi WNW 3.5 mph - N/A   Clear